FW6835 Weather Reports


Display with metric or nautical units.
time (UTC)temp
F
wind
direction
speed
MPH
gust
MPH
rain 1hr
in
rain 24hr
in
rain mn
in
humidity
%
barometer
mb
20260506231057 52 63 0.0 3.0 0.05 0.11 0.05 97 1006.9
20260506230557 52 63 1.0 3.0 0.04 0.10 0.04 97 1006.8
20260506230112 52 94 1.0 5.0 0.03 0.09 0.03 97 1006.8
20260506225557 52 44 1.0 6.0 0.03 0.25 0.03 97 1006.7
20260506225055 52 325 2.0 10.0 0.02 0.24 0.02 96 1006.7
20260506224556 52 100 3.0 10.0 0.02 0.24 0.02 96 1006.7
20260506224055 52 69 2.0 6.0 0.02 0.24 0.02 96 1006.7
20260506223558 52 38 1.0 8.0 0.02 0.24 0.02 96 1006.7
20260506223054 52 58 3.0 9.0 0.02 0.24 0.02 96 1006.7
20260506222552 52 91 2.0 9.0 0.01 0.23 0.01 96 1006.7
20260506222054 52 65 2.0 6.0 0.01 0.23 0.01 96 1006.8
20260506221605 52 94 1.0 6.0 0.00 0.22 0.00 96 1006.8
20260506221050 52 101 2.0 11.0 0.00 0.22 0.00 96 1006.7
20260506220549 52 95 3.0 9.0 0.00 0.22 0.00 96 1006.8
20260506220049 52 87 2.0 9.0 0.00 0.22 0.00 96 1006.8
20260506215548 52 81 2.0 8.0 0.00 0.27 0.22 96 1006.7
20260506215051 53 104 4.0 8.0 0.00 0.27 0.22 96 1006.7
20260506214553 53 88 1.0 6.0 0.00 0.27 0.22 96 1006.7
20260506214046 53 96 2.0 10.0 0.00 0.27 0.22 95 1006.7
20260506213547 53 67 3.0 9.0 0.00 0.27 0.22 95 1006.7
20260506213047 53 68 2.0 7.0 0.00 0.27 0.22 95 1006.6
20260506212546 53 155 2.0 7.0 0.00 0.27 0.22 95 1006.6
20260506212046 53 87 2.0 7.0 0.00 0.27 0.22 95 1006.5
20260506211546 53 53 2.0 6.0 0.00 0.27 0.22 95 1006.5
20260506211048 53 44 2.0 8.0 0.00 0.27 0.22 95 1006.4
20260506210547 53 96 2.0 8.0 0.00 0.27 0.22 95 1006.5
20260506210054 53 333 2.0 9.0 0.00 0.27 0.22 95 1006.4
20260506205551 53 69 2.0 9.0 0.00 0.27 0.22 95 1006.4
20260506205045 53 80 1.0 8.0 0.00 0.27 0.22 95 1006.5
20260506204547 53 91 2.0 11.0 0.00 0.27 0.22 95 1006.3
20260506204044 53 73 3.0 11.0 0.00 0.27 0.22 94 1006.3
20260506203544 54 70 3.0 8.0 0.00 0.27 0.22 94 1006.2
20260506203045 54 342 1.0 8.0 0.00 0.27 0.22 94 1006.3
20260506202544 54 178 2.0 8.0 0.00 0.27 0.22 94 1006.3
20260506202044 54 32 3.0 8.0 0.00 0.27 0.22 94 1006.2
20260506201544 54 305 2.0 8.0 0.00 0.27 0.22 93 1006.2
20260506201047 54 68 3.0 10.0 0.00 0.27 0.22 93 1006.2
20260506200552 54 82 2.0 10.0 0.00 0.27 0.22 93 1006.1
20260506200043 54 91 3.0 10.0 0.00 0.27 0.22 92 1006.1
20260506195543 55 99 1.0 7.0 0.00 0.27 0.22 92 1006.2
20260506195043 55 78 2.0 7.0 0.00 0.27 0.22 92 1006.1
20260506194544 55 41 3.0 10.0 0.00 0.27 0.22 91 1006.2
20260506194042 55 5 2.0 10.0 0.00 0.27 0.22 91 1006.2
20260506193543 55 69 3.0 10.0 0.00 0.27 0.22 90 1006.3
20260506193046 55 87 2.0 5.0 0.00 0.27 0.22 90 1006.2
20260506192542 56 42 2.0 10.0 0.00 0.27 0.22 90 1006.3
20260506192042 56 80 2.0 10.0 0.00 0.27 0.22 89 1006.2
20260506191542 56 67 2.0 6.0 0.00 0.27 0.22 89 1006.2
20260506191042 56 79 2.0 5.0 0.00 0.27 0.22 88 1006.1
20260506190541 56 61 2.0 11.0 0.00 0.27 0.22 88 1006.1
20260506190043 56 116 2.0 11.0 0.00 0.27 0.22 87 1006.1
20260506185542 56 98 2.0 5.0 0.00 0.27 0.22 87 1005.9
20260506185041 57 86 2.0 6.0 0.00 0.27 0.22 86 1005.9
20260506184546 57 74 2.0 6.0 0.00 0.27 0.22 86 1005.9
20260506184142 57 84 1.0 6.0 0.00 0.27 0.22 86 1005.6
20260506183545 57 63 2.0 7.0 0.00 0.27 0.22 86 1005.7
20260506183044 57 88 2.0 5.0 0.00 0.27 0.22 86 1005.6
20260506182541 57 63 1.0 6.0 0.00 0.27 0.22 86 1005.6
20260506182042 57 76 1.0 4.0 0.00 0.27 0.22 87 1005.7
20260506181545 57 78 2.0 5.0 0.00 0.27 0.22 87 1005.8
20260506181039 57 48 1.0 5.0 0.00 0.27 0.22 87 1005.7
20260506180543 57 62 2.0 4.0 0.00 0.27 0.22 87 1005.8
20260506180039 57 76 0.0 6.0 0.00 0.27 0.22 87 1005.8
20260506175539 57 77 0.0 6.0 0.00 0.27 0.22 87 1005.8
20260506175042 58 61 0.0 3.0 0.00 0.27 0.22 86 1005.6
20260506174539 58 59 0.0 3.0 0.00 0.27 0.22 85 1005.5
20260506174039 58 119 0.0 0.0 0.00 0.27 0.22 85 1005.7
20260506173539 58 121 0.0 0.0 0.00 0.27 0.22 84 1005.7
20260506173044 59 126 0.0 0.0 0.00 0.27 0.22 83 1005.5
20260506172538 59 126 0.0 0.0 0.00 0.27 0.22 82 1005.5
20260506172037 59 128 0.0 0.0 0.00 0.27 0.22 81 1005.5
20260506171538 60 128 0.0 0.0 0.00 0.27 0.22 80 1005.4
20260506171038 60 128 0.0 0.0 0.00 0.27 0.22 79 1005.4
20260506170538 61 132 0.0 0.0 0.00 0.27 0.22 78 1005.5
20260506170044 61 134 0.0 0.0 0.00 0.27 0.22 76 1005.4
20260506165537 61 142 0.0 0.0 0.00 0.27 0.22 77 1005.5
20260506165037 62 147 0.0 0.0 0.00 0.27 0.22 77 1005.6
20260506164551 62 148 0.0 0.0 0.00 0.27 0.22 74 1005.7
20260506164036 62 148 0.0 0.0 0.00 0.27 0.22 72 1005.6
20260506163537 63 148 0.0 0.0 0.00 0.27 0.22 72 1005.4
20260506163041 63 148 0.0 0.0 0.00 0.27 0.22 71 1005.6
20260506162539 64 162 0.0 5.0 0.00 0.27 0.22 73 1005.4
20260506162039 64 148 0.0 5.0 0.00 0.27 0.22 66 1005.4
20260506161536 63 148 1.0 5.0 0.00 0.27 0.22 65 1005.4
20260506161035 64 262 0.0 5.0 0.00 0.27 0.22 66 1005.5
20260506160535 63 294 0.0 5.0 0.00 0.27 0.22 67 1005.6
20260506160037 63 281 1.0 6.0 0.00 0.27 0.22 64 1005.8
20260506155535 63 261 1.0 6.0 0.00 0.27 0.22 64 1005.8
20260506155035 63 204 2.0 7.0 0.00 0.27 0.22 64 1005.7
20260506154536 64 205 0.0 4.0 0.00 0.27 0.22 68 1005.7
20260506154037 64 188 0.0 4.0 0.00 0.27 0.22 67 1005.7
20260506153537 64 182 2.0 8.0 0.00 0.27 0.22 64 1005.7
20260506153035 64 194 2.0 8.0 0.00 0.27 0.22 63 1005.8
20260506152534 64 177 2.0 8.0 0.00 0.27 0.22 63 1005.9
20260506152036 65 209 3.0 8.0 0.00 0.27 0.22 62 1005.8
20260506151537 66 142 3.0 8.0 0.00 0.27 0.22 60 1005.9
20260506151033 66 186 4.0 9.0 0.00 0.27 0.22 60 1005.9
20260506150533 66 183 3.0 9.0 0.00 0.27 0.22 61 1005.7
20260506150033 66 128 2.0 9.0 0.00 0.27 0.22 62 1005.7
20260506145533 66 140 3.0 9.0 0.00 0.27 0.22 62 1005.8
20260506145031 65 215 3.0 9.0 0.00 0.27 0.22 64 1005.8
20260506144532 65 184 5.0 9.0 0.00 0.27 0.22 62 1005.8
20260506144031 65 160 4.0 8.0 0.00 0.27 0.22 66 1005.9
20260506143531 64 190 1.0 7.0 0.00 0.27 0.22 67 1005.9
20260506143037 64 165 2.0 7.0 0.00 0.27 0.22 67 1006.0
20260506142630 64 165 3.0 7.0 0.00 0.27 0.22 67 1006.1
20260506142030 65 155 2.0 8.0 0.00 0.27 0.22 65 1006.0
20260506141540 65 210 2.0 10.0 0.00 0.27 0.22 69 1006.0
20260506141029 65 144 4.0 10.0 0.00 0.27 0.22 66 1006.0
20260506140532 65 192 3.0 9.0 0.00 0.27 0.22 66 1006.1
20260506140029 64 156 4.0 9.0 0.00 0.27 0.22 64 1006.1
20260506135528 65 227 2.0 7.0 0.00 0.27 0.22 71 1006.2
20260506135031 65 177 2.0 11.0 0.00 0.27 0.22 66 1006.1
20260506134528 65 145 4.0 11.0 0.00 0.27 0.22 64 1006.1
20260506134029 66 191 2.0 10.0 0.00 0.27 0.22 64 1006.2
20260506133527 66 248 4.0 10.0 0.00 0.27 0.22 65 1006.1
20260506133027 66 252 4.0 10.0 0.00 0.27 0.22 66 1006.3
20260506132530 65 164 3.0 9.0 0.00 0.27 0.22 67 1006.3
20260506132026 65 252 4.0 12.0 0.00 0.27 0.22 67 1006.3
20260506131526 65 279 6.0 13.0 0.00 0.27 0.22 65 1006.3
20260506131024 65 240 2.0 9.0 0.00 0.27 0.22 71 1006.3
20260506130528 65 292 4.0 9.0 0.00 0.27 0.22 68 1006.4
20260506130023 64 173 4.0 9.0 0.00 0.27 0.22 72 1006.4
20260506125523 64 151 3.0 9.0 0.00 0.27 0.22 69 1006.3
20260506125023 65 242 3.0 9.0 0.00 0.27 0.22 70 1006.4
20260506124522 65 175 3.0 9.0 0.00 0.27 0.22 71 1006.4
20260506124021 64 194 3.0 10.0 0.00 0.27 0.22 70 1006.4
20260506123521 64 219 3.0 10.0 0.00 0.27 0.22 73 1006.5
20260506123021 64 186 3.0 10.0 0.00 0.27 0.22 72 1006.4
20260506122520 64 178 4.0 7.0 0.00 0.27 0.22 70 1006.5
20260506122019 64 201 2.0 9.0 0.00 0.27 0.22 74 1006.6
20260506121519 63 178 5.0 10.0 0.00 0.27 0.22 72 1006.5
20260506121019 64 220 4.0 7.0 0.00 0.27 0.22 73 1006.5
20260506120519 63 203 3.0 9.0 0.00 0.27 0.22 73 1006.5
20260506120034 63 184 3.0 11.0 0.00 0.27 0.22 70 1006.5
20260506115521 63 267 3.0 11.0 0.00 0.27 0.22 73 1006.5
20260506115017 64 207 3.0 9.0 0.00 0.27 0.22 77 1006.5
20260506114519 63 213 3.0 8.0 0.00 0.27 0.22 74 1006.3
20260506114015 62 232 2.0 8.0 0.00 0.27 0.22 76 1006.4
20260506113514 62 196 3.0 11.0 0.00 0.27 0.22 74 1006.4
20260506113013 62 253 5.0 11.0 0.00 0.27 0.22 74 1006.3
20260506112512 62 185 4.0 12.0 0.00 0.27 0.22 73 1006.6
20260506112012 62 266 5.0 12.0 0.00 0.27 0.22 73 1006.3
20260506111510 62 184 4.0 8.0 0.00 0.27 0.22 75 1006.4
20260506111010 61 211 3.0 8.0 0.00 0.27 0.22 76 1006.3
20260506110610 61 249 3.0 8.0 0.00 0.27 0.22 77 1006.3
20260506110010 61 226 3.0 10.0 0.00 0.27 0.22 78 1006.5
20260506105509 60 239 5.0 12.0 0.00 0.27 0.22 78 1006.5
20260506105010 61 312 3.0 17.0 0.00 0.27 0.22 79 1006.4
20260506104513 61 255 2.0 14.0 0.00 0.27 0.22 78 1006.5
20260506104011 61 176 5.0 14.0 0.00 0.27 0.22 77 1006.4
20260506103506 61 182 1.0 7.0 0.00 0.27 0.22 82 1006.5
20260506103018 60 164 3.0 8.0 0.00 0.27 0.22 83 1006.4
20260506102507 60 207 3.0 7.0 0.00 0.27 0.22 82 1006.3
20260506102006 60 242 2.0 8.0 0.00 0.27 0.22 81 1006.3
20260506101505 60 210 3.0 8.0 0.00 0.27 0.22 81 1006.4
20260506101002 59 227 4.0 8.0 0.00 0.27 0.22 81 1006.4
20260506100502 59 155 3.0 9.0 0.00 0.27 0.22 83 1006.4
20260506100002 59 178 5.0 9.0 0.00 0.27 0.22 83 1006.3
20260506095601 59 181 4.0 11.0 0.00 0.27 0.22 85 1006.5
20260506095059 59 141 4.0 10.0 0.00 0.27 0.22 86 1006.4
20260506094603 58 247 2.0 7.0 0.00 0.27 0.22 90 1006.3
20260506094057 58 215 2.0 5.0 0.00 0.27 0.22 90 1006.4
20260506093555 57 192 3.0 6.0 0.00 0.27 0.22 90 1006.4
20260506093054 56 245 2.0 7.0 0.00 0.27 0.22 92 1006.5
20260506092553 56 193 1.0 7.0 0.00 0.27 0.22 91 1006.4
20260506092052 56 167 2.0 10.0 0.00 0.27 0.22 90 1006.3
20260506091552 56 254 3.0 10.0 0.00 0.27 0.22 91 1006.5
20260506091051 56 194 2.0 9.0 0.00 0.27 0.22 93 1006.4
20260506090549 55 268 3.0 9.0 0.00 0.27 0.22 93 1006.4
20260506090049 55 118 2.0 7.0 0.00 0.27 0.22 93 1006.3
20260506085548 55 221 1.0 6.0 0.00 0.27 0.22 93 1006.3
20260506085048 55 175 3.0 7.0 0.00 0.27 0.22 93 1006.5
20260506084615 54 211 2.0 8.0 0.00 0.27 0.22 93 1006.3
20260506084047 54 275 3.0 8.0 0.00 0.27 0.22 94 1006.3
20260506083545 54 193 4.0 8.0 0.00 0.27 0.22 94 1006.2
20260506083046 54 188 2.0 5.0 0.00 0.27 0.22 95 1006.2
20260506082544 54 193 0.0 6.0 0.00 0.27 0.22 96 1006.1
20260506082044 54 242 3.0 6.0 0.00 0.27 0.22 96 1006.0
20260506081552 54 176 1.0 7.0 0.00 0.27 0.22 96 1006.1
20260506081043 53 176 2.0 8.0 0.00 0.27 0.22 96 1006.1
20260506080543 53 117 3.0 8.0 0.00 0.27 0.22 96 1006.2
20260506073040 53 146 4.0 9.0 0.00 0.27 0.22 97 1006.0
20260506072539 53 183 3.0 9.0 0.00 0.27 0.22 97 1005.9
20260506072039 53 182 1.0 7.0 0.00 0.27 0.22 98 1005.9
20260506071539 53 266 3.0 7.0 0.00 0.27 0.22 98 1005.8
20260506071038 52 246 1.0 6.0 0.00 0.27 0.22 98 1005.9
20260506070538 52 207 2.0 5.0 0.00 0.27 0.22 99 1005.8
20260506062034 50 206 2.0 7.0 0.00 0.27 0.22 99 1006.0
20260506061534 50 196 1.0 5.0 0.00 0.27 0.22 99 1006.2
20260506061034 50 161 1.0 6.0 0.00 0.27 0.22 99 1006.1
20260506060533 50 183 2.0 6.0 0.00 0.27 0.22 99 1006.2
20260506051029 50 168 1.0 5.0 0.00 0.27 0.22 99 1005.9
20260506050529 50 198 2.0 7.0 0.00 0.27 0.22 99 1005.9
20260506045027 49 160 2.0 8.0 0.00 0.27 0.22 99 1005.6
20260506044534 49 185 3.0 8.0 0.00 0.27 0.22 99 1005.6
20260506044028 49 196 1.0 4.0 0.00 0.27 0.22 99 1005.5
20260506043531 49 207 0.0 3.0 0.00 0.27 0.22 99 1005.4
20260506043026 49 245 0.0 4.0 0.00 0.27 0.22 99 1005.4
20260506042525 49 245 1.0 4.0 0.00 0.27 0.22 99 1005.2
20260506042024 49 236 2.0 4.0 0.00 0.27 0.22 99 1005.2
20260506041524 49 243 1.0 4.0 0.00 0.27 0.22 99 1005.2
20260506041024 49 241 2.0 4.0 0.00 0.27 0.22 99 1005.3
20260506040526 49 210 0.0 2.0 0.00 0.27 0.22 99 1005.3
20260506040029 49 210 0.0 3.0 0.00 0.27 0.22 99 1005.3
20260506035523 49 209 0.0 6.0 0.00 0.27 0.22 99 1005.1
20260506035022 49 244 1.0 6.0 0.00 0.27 0.22 99 1005.2
20260506034522 49 230 1.0 5.0 0.00 0.27 0.22 99 1005.3
20260506034021 49 252 2.0 5.0 0.00 0.27 0.22 99 1005.3
20260506033521 49 246 1.0 5.0 0.00 0.27 0.22 99 1005.2
20260506033021 49 236 0.0 5.0 0.00 0.27 0.22 99 1005.2
20260506032521 49 239 1.0 5.0 0.00 0.27 0.22 99 1005.2
20260506032020 49 234 1.0 4.0 0.00 0.27 0.22 99 1005.4
20260506031520 49 200 1.0 7.0 0.00 0.27 0.22 98 1005.3
20260506031020 49 237 3.0 7.0 0.00 0.27 0.22 99 1005.5
20260506030520 49 223 0.0 5.0 0.00 0.27 0.22 99 1005.3
20260506030021 49 202 1.0 3.0 0.00 0.27 0.22 98 1005.3
20260506025518 49 201 0.0 4.0 0.00 0.27 0.22 98 1005.4
20260506025018 50 202 1.0 4.0 0.00 0.27 0.22 98 1005.4
20260506024518 50 223 0.0 4.0 0.00 0.27 0.22 98 1005.4
20260506024017 50 223 1.0 6.0 0.00 0.27 0.22 98 1005.4
20260506023517 50 172 1.0 6.0 0.00 0.27 0.22 98 1005.4
20260506023029 50 169 3.0 6.0 0.00 0.27 0.22 98 1005.4
20260506022515 50 236 1.0 5.0 0.00 0.27 0.22 98 1005.4
20260506022021 50 191 1.0 5.0 0.00 0.27 0.22 98 1005.5
20260506021521 50 229 0.0 3.0 0.00 0.27 0.22 98 1005.6
20260506021018 50 232 1.0 3.0 0.00 0.27 0.22 98 1005.3
20260506020512 50 232 0.0 3.0 0.00 0.27 0.22 98 1005.5
20260506020014 50 190 0.0 3.0 0.00 0.27 0.22 98 1005.6
20260506015513 50 188 0.0 2.0 0.00 0.27 0.22 98 1005.5
20260506015013 50 188 0.0 3.0 0.00 0.27 0.22 98 1005.5
20260506014513 50 188 0.0 3.0 0.00 0.27 0.22 98 1005.5
20260506014013 50 184 0.0 0.0 0.00 0.27 0.22 98 1005.4
20260506013511 50 184 0.0 0.0 0.00 0.27 0.22 98 1005.5
20260506013014 50 184 0.0 0.0 0.00 0.27 0.22 98 1005.5
20260506012511 50 184 0.0 0.0 0.00 0.27 0.22 98 1005.6
20260506012012 50 184 0.0 0.0 0.01 0.27 0.22 98 1005.7
20260506011511 50 184 0.0 0.0 0.01 0.27 0.22 98 1005.6
20260506011010 50 184 0.0 0.0 0.01 0.27 0.22 98 1005.6
20260506010510 50 184 0.0 0.0 0.01 0.27 0.22 98 1005.6
20260506010013 50 184 0.0 1.0 0.01 0.27 0.22 98 1005.7
20260506005510 50 184 0.0 1.0 0.01 0.27 0.22 97 1005.8
20260506005011 50 139 0.0 0.0 0.01 0.27 0.22 97 1005.8
20260506004512 50 139 0.0 0.0 0.01 0.27 0.22 97 1005.8
20260506004013 50 111 0.0 0.0 0.02 0.27 0.22 97 1005.8
20260506003512 50 107 0.0 0.0 0.02 0.27 0.22 97 1005.7
20260506003013 50 84 0.0 0.0 0.02 0.27 0.22 97 1005.5
20260506002507 50 84 0.0 0.0 0.02 0.27 0.22 97 1005.3
20260506002007 50 84 0.0 0.0 0.02 0.26 0.21 97 1005.3
20260506001508 50 84 0.0 3.0 0.02 0.26 0.21 97 1005.1
20260506001007 50 84 1.0 3.0 0.03 0.26 0.21 97 1005.2
20260506000507 50 84 1.0 2.0 0.05 0.26 0.21 97 1005.0
20260506000006 51 84 0.0 3.0 0.06 0.26 0.21 97 1004.9
20260505235508 51 84 1.0 3.0 0.06 0.26 0.21 96 1005.1
20260505235006 51 80 1.0 3.0 0.07 0.26 0.21 96 1005.1
20260505234505 51 88 0.0 3.0 0.08 0.26 0.21 96 1005.2
20260505234004 51 92 1.0 4.0 0.09 0.25 0.20 96 1005.3
20260505233506 51 111 1.0 4.0 0.09 0.25 0.20 96 1005.4
20260505233003 51 101 0.0 3.0 0.10 0.24 0.20 96 1005.6
20260505232503 51 101 0.0 11.0 0.12 0.24 0.20 96 1005.7
20260505232001 51 72 0.0 11.0 0.13 0.24 0.19 96 1005.8
20260505231501 51 301 0.0 5.0 0.16 0.24 0.19 96 1005.8